Вернуться в каталог

QIANFAN-96

АктивенСвязьPO
NORAD 66038·PAYLOAD·🇨🇳 China

Запущен Oct 17, 2025 с Taiyuan Satellite Launch Center

Loading…

Ближайшие Пролёты (ближайшие 24 часа)

TLE

СвежийSource: Space-Track

Эпоха: Sep 14, 2026, 08:11 UTC

1 66038U 25233F   26257.34125749  .00000074  00000-0  96646-4 0  9991
2 66038  89.0048  34.1894 0001843  89.6757 270.4605 13.51028323 45215

Отслеживайте QIANFAN-96 в реальном времени с AllMySat

Download on the App Store